Tracking 27097 objects as of 29-Mar-2023
HD Live streaming from Space Station
objects crossing your sky now

STELLA

Track STELLA now!
10-day predictions
STELLA is classified as:


NORAD ID: 22824
Int'l Code: 1993-061B
Perigee: 802.4 km
Apogee: 812.8 km
Inclination: 98.9 °
Period: 100.9 minutes
Semi major axis: 7178 km
RCS: 0.167 m2 (medium)
Launch date: September 26, 1993
Source: France (FR)
Launch site: FRENCH GUIANA (FRGUI)
Your satellite tracking list
Your tracking list is empty




NASA's NSSDC Master Catalog

Two Line Element Set (TLE):
1 22824U 93061B   23087.99553199 -.00000018  00000-0  11676-4 0  9992
2 22824  98.9388 120.7467 0007239  57.4215   7.6443 14.27401775537138
Source of the keplerian elements: AFSPC